Starlink 4374

operational
NORAD ID: 53652 Int'l Des: 2022-105 Owner: SPXS Country: US Constellation: starlink
LEOCIRCULARRETROGRADESSO

Starlink 4374について

説明を読み込み中...

リアルタイム位置

3D地球を読み込み中...

次回通過

高度履歴

Altitude vs Time

uPlot chart will show altitude changes over time

軌道要素

1 53652U 22105E 25308.66437817 -.00000383 00000-0 -25245-4 0 9999
2 53652 97.6007 187.8086 0003192 62.7746 297.3804 15.01257493174470
Epoch: Nov 4, 2025 • Age: 16 hours

現在のステータス

高度 572.1 km
速度 7.58 km/s
衛星直下点 65.15°N, 3.48°E
打ち上げ日 Aug 31, 2022
運用期間 3.1 years
タイプ internet

技術仕様

分類 Payload
質量 300.00 kg
乾燥質量 290.00 kg
総質量 300.00 kg
長さ 0.20 m
直径 2.80 m
スパン 9.00 m
形状 Box + pan
製造者 SPXS
バスタイプ Starlink
フェーズステータス In Orbit
所有者/国 SPXS/US

大規模コンステレーション

Loading constellations...